This demonstration page uses our WeatherBlox Daily Observations layout. Learn more.

Left ArrowRight Arrow

47.50024, -111.30081

Hourly Observations for January 28, 2018

Temp ( °F °C ) Dew Point ( °F °C ) Humidity (%) Winds ( mph kmh ) Pressure ( in mb ) Visibility ( mi km ) Precip ( " mm )
12:53 am 00:53 Mostly Cloudy 17 -8.3 14 -10 88 88 NE 3 6 30.29 1026 10 16 0.00 0.00
1:53 am 01:53 Mostly Clear 15 -9.4 12 -11.1 88 88 Calm 30.34 1027 10 16 0.00 0.00
2:53 am 02:53 Mostly Cloudy 15 -9.4 11 -11.7 84 84 N 8 13 30.41 1030 10 16 0.00 0.00
3:11 am 03:11 Cloudy 14 -10 11 -11.7 88 88 NNW 18 30 30.50 1033 10 16 0.00 0.00
3:31 am 03:31 Mostly Cloudy 13 -10.6 10 -12.2 88 88 N 15 24 30.53 1034 10 16 0.00 0.00
3:48 am 03:48 Cloudy 12 -11 10 -12 92 92 N 12 19 30.56 1035 10 16 0.00 0.00
3:53 am 03:53 Cloudy 13 -10.6 10 -12.2 88 88 N 12 19 30.50 1033 10 16 0.00 0.00
4:53 am 04:53 Cloudy 14 -10 9 -12.8 80 80 N 10 17 30.58 1035 10 16 0.00 0.00
5:53 am 05:53 Cloudy 14 -10 8 -13.3 77 77 NNW 12 19 30.63 1037 8 13 0.00 0.00
6:08 am 06:08 Cloudy 14 -10 8 -13.3 77 77 NNW 9 15 30.68 1039 9 14 0.00 0.00
6:17 am 06:17 Cloudy 14 -10 8 -13.3 77 77 NNW 12 19 30.71 1040 10 16 0.00 0.00
6:53 am 06:53 Cloudy 13 -10.6 7 -13.9 77 77 NNW 6 9 30.67 1039 7 11 0.00 0.00
7:53 am 07:53 Cloudy 13 -10.6 6 -14.4 74 74 NW 7 11 30.71 1040 10 16 0.00 0.00
8:53 am 08:53 Cloudy 12 -11.1 5 -15 73 73 NW 9 15 30.72 1040 10 16 0.00 0.00
9:53 am 09:53 Cloudy 13 -10.6 5 -15 70 70 NNW 3 6 30.71 1040 10 16 0.00 0.00
10:37 am 10:37 Cloudy 14 -10 6 -14.4 71 71 NW 5 7 30.77 1042 10 16 0.00 0.00
10:53 am 10:53 Cloudy 14 -10 6 -14.4 71 71 W 3 6 30.71 1040 10 16 0.00 0.00
11:53 am 11:53 Cloudy 17 -8.3 8 -13.3 68 68 Calm 30.69 1039 10 16 0.00 0.00
12:20 pm 12:20 Mostly Cloudy 17 -8.3 8 -13.3 68 68 Calm 30.68 1039 10 16 0.00 0.00
12:53 pm 12:53 Cloudy 17 -8.3 8 -13.3 68 68 E 5 7 30.65 1038 10 16 0.00 0.00
1:53 pm 13:53 Cloudy 18 -7.8 9 -12.8 68 68 SE 3 6 30.64 1038 10 16 0.00 0.00
2:53 pm 14:53 Cloudy 19 -7.2 10 -12.2 68 68 ESE 6 9 30.61 1037 10 16 0.00 0.00
3:53 pm 15:53 Cloudy 19 -7.2 10 -12.2 68 68 E 8 13 30.60 1036 10 16 0.00 0.00
4:53 pm 16:53 Partly Cloudy 19 -7.2 10 -12.2 68 68 ENE 8 13 30.56 1035 10 16 0.00 0.00
5:53 pm 17:53 Mostly Clear 16 -8.9 9 -12.8 74 74 ENE 9 15 30.56 1035 10 16 0.00 0.00
6:53 pm 18:53 Partly Cloudy 14 -10 8 -13.3 77 77 ENE 9 15 30.55 1035 10 16 0.00 0.00
7:53 pm 19:53 Cloudy 13 -10.6 8 -13.3 81 81 E 7 11 30.54 1034 10 16 0.00 0.00
8:53 pm 20:53 Cloudy 14 -10 8 -13.3 77 77 E 3 6 30.52 1034 10 16 0.00 0.00
9:53 pm 21:53 Cloudy 16 -8.9 10 -12.2 77 77 Calm 30.48 1032 10 16 0.00 0.00
10:53 pm 22:53 Cloudy 19 -7.2 11 -11.7 71 71 NE 5 7 30.47 1032 10 16 0.00 0.00
11:53 pm 23:53 Cloudy 18 -7.8 10 -12.2 71 71 SE 6 9 30.45 1031 10 16 0.00 0.00

Powered by AerisWeather